Regional Weather Roundup
Issued by NWS

Home | Current Version | Previous Version | Text Only | Print | Product List | Glossary On
Versions: 1 2 3 4 5 6 7 8 9 10 11 12 13 14 15 16 17 18 19 20 21 22 23 24 25 26 27 28 29 30 31 32 33 34 35 36 37 38 39 40 41 42 43 44 45 46 47 48 49 50
000
ASUS42 KTBW 292016
RWRFL
FLORIDA REGIONAL WEATHER ROUNDUP
NATIONAL WEATHER SERVICE TAMPA BAY RUSKIN FL
400 PM EDT THU SEP 29 2016

NOTE: "FAIR" INDICATES FEW OR NO CLOUDS BELOW 12,000 FEET WITH NO
SIGNIFICANT WEATHER AND/OR OBSTRUCTIONS TO VISIBILITY.

FLZ001>010-012>015-112-114-115-292100-
PANHANDLE FLORIDA

CITY           SKY/WX    TMP DP  RH WIND       PRES   REMARKS
PENSACOLA      SUNNY     89  62  40 NW10      29.98F
PENSACOLA NAS  MOSUNNY   88  62  41 N8        29.97F
MILTON NAS     MOSUNNY   85  62  46 VRB7G16   29.99F
CRESTVIEW      SUNNY     87  60  40 NW9       29.99F
DUKE FIELD     MOSUNNY   88  59  37 NW10      29.97F
VALPARAISO     MOSUNNY   91  58  32 NW13      29.96F
MARY ESTHER    SUNNY     88  58  36 W12       29.96F
TRI COUNTY     FAIR      88  58  36 VRB5      29.96F
PANAMA CITY    FAIR      90  58  33 SW16      29.95F
TYNDALL AFB    SUNNY     86  60  41 NW12      29.97F
APALACHICOLA   SUNNY     89  68  49 W14       29.96F

STATION/POSITION SKY/WX   TEMP    WIND        PRES    WAVE   SWELL
                          AIR SEA DIR/SP/G            HT/PER HT/PER
                          (F)     (DEG/KT/KT) (MB)    (FT/S) (FT/S)
30.1N   87.6W              81 86  290/ 10/ 12 1015.8F   1/ 3
29.2N   88.2W              82 85  310/ 10/ 12 1016.4F
28.8N   86.0W              83 85              1015.8F   2/ 4
PANAMA CITY BEAC           83 85  250/ 13/ 14 1015.8F
TOWER C                    83     280/ 10/ 12 1015.7F
28.5N   84.5W              85 85  280/ 10/ 12 1015.4F   2/ 5   2/ 5

$$
FLZ011-016>038-118-127-128-134-139-239-292100-
NORTH FLORIDA

CITY           SKY/WX    TMP DP  RH WIND       PRES   REMARKS
MARIANNA       SUNNY     89  58  34 W10       29.94F
TALLAHASSEE    MOSUNNY   90  64  42 SW10      29.94F
PERRY          MOSUNNY   91  68  47 W10       29.96F HX  95
CROSS CITY     MOSUNNY   90  72  55 W12       29.97F HX  96
LAKE CITY      PTSUNNY   88  70  55 SW7       29.95F
GAINESVILLE    CLOUDY    83  73  72 S16G24    29.98S
WILLISTON      SUNNY     84  77  79 CALM      29.98F
PALATKA        FAIR      84  77  79 S8        29.98S
MAYPORT NAS    PTSUNNY   83  74  74 SE10      29.95F
JACKSONVILLE   PTSUNNY   89  71  55 SW7       29.93F HX  95
JAX NAS        PTSUNNY   91  72  53 S14       29.95F HX  98
FERNANDINA BEA PTSUNNY   88  75  66 SE13      29.93F HX  97
ST AUGUSTINE   CLOUDY    86  72  62 S12       29.97F
PALM COAST     PTSUNNY  N/A N/A N/A W9        29.98

STATION/POSITION SKY/WX   TEMP    WIND        PRES    WAVE   SWELL
                          AIR SEA DIR/SP/G            HT/PER HT/PER
                          (F)     (DEG/KT/KT) (MB)    (FT/S) (FT/S)
SHELL POINT                87     270/  7/  9 1013.5
KEATON BEACH               84     200/  6/  7 1014.6F
CEDAR KEY                  85     290/  8/ 11 1015.3F
FERNANDINA                 89 84  190/  4/  7 1014.0F
30.7N   81.3W                 83                N/A     2/11   2/11
MAYPORT                    86 84  150/  4/  8 1014.8F
31.4N   80.9W              82 83  160/  8/  8 1014.0F   2/10   2/10
ST AUGUSTINE               83 84  220/ 10/ 12 1015.6F

$$
FLZ040-043>046-052-053-057-058-063-144-292100-
INTERIOR CENTRAL FLORIDA

CITY           SKY/WX    TMP DP  RH WIND       PRES   REMARKS
OCALA          MOSUNNY   79  73  83 W7        29.97F
THE VILLAGES     N/A     77  77 100 CALM      29.89F
LEESBURG       LGT RAIN  77  73  87 SW3       29.99F
SANFORD        CLOUDY    78  72  81 S7        29.98F
ORLANDO EXEC   CLOUDY    83  75  77 SW6       29.98F
ORLANDO INTL   CLOUDY    85  73  67 W9        29.98F
KISSIMMEE      PTSUNNY   85  75  72 W7        30.01F
WINTER HAVEN   MOSUNNY   83  72  69 W6        30.02F
LAKELAND       RAIN      82  73  74 NE7       30.02F
BARTOW         PTSUNNY   82  72  69 SW5       30.01F
OKEECHOBEE     LGT RAIN  73  72  94 S5        30.03F

$$
FLZ041-047-054-059-064-141-147-292100-
EAST CENTRAL FLORIDA

CITY           SKY/WX    TMP DP  RH WIND       PRES   REMARKS
ORMOND BEACH   PTSUNNY   77  73  88 SW9       29.99F THUNDER
DAYTONA BEACH  TSTM      74  71  91 SE5       29.99F
DELAND         CLOUDY    77  73  88 NW3       29.98F
NEW SMYRNA BEA MOSUNNY   73  72  94 SW9       30.01
JFK SPACE CTR  MOSUNNY   80  70  71 W7        29.97F
TITUSVILLE     PTSUNNY   79  77  94 SW12      30.01S
CAPE CANAVERAL RAIN      79  73  83 SW9G18    29.98F
PATRICK AFB    TSTM      81  70  69 NW13G36   29.99F
MELBOURNE      PTSUNNY   82  73  74 SW14      30.00S
VERO BEACH     CLOUDY    75  71  87 SW5       30.03R
FT PIERCE      CLOUDY    76  68  76 SW5       30.02F
STUART         TSTM      77  73  88 S9        30.05S

STATION/POSITION SKY/WX   TEMP    WIND        PRES    WAVE   SWELL
                          AIR SEA DIR/SP/G            HT/PER HT/PER
                          (F)     (DEG/KT/KT) (MB)    (FT/S) (FT/S)
28.5N   80.2W              83 85  180/ 10/ 12 1016.3F
TRIDENT PIER               88 85  200/  8/ 11 1016.1F
28.4N   80.5W                 86                N/A     1/11
27.5N   80.2W                 85                N/A     2/11   2/11

$$
FLZ050-056-061-142-242-148-248-149-249-151-251-155-255-
160-260-292100-
WEST CENTRAL FLORIDA

CITY           SKY/WX    TMP DP  RH WIND       PRES   REMARKS
CRYSTAL RIVER  CLOUDY    86  73  66 SW8       29.98F
INVERNESS      CLOUDY    84  79  84 CALM      29.98F HX  96
BROOKSVILLE    PTSUNNY   87  72  60 W14       29.99F
CLEARWATER AIR FAIR      84  73  70 W12       29.98F
ST PETE CLEARW MOSUNNY   88  74  63 W14       29.98F HX  96
TAMPA INTL     PTSUNNY   87  72  60 W13       29.99F
TAMPA EXEC     PTSUNNY   88  73  62 CALM      30.00F HX  96
PLANT CITY     CLOUDY    88  75  66 W5        30.02F HX  97
MACDILL AFB    MOSUNNY   90  73  58 W9        29.99F HX  98
PETER O KNIGHT PTSUNNY   88  77  70 W3        29.99F HX 100
ST PETERSBURG  SUNNY     85  73  67 W9        29.97F
SARASOTA       LGT RAIN  84  77  79 NW5       29.98F
VENICE         FAIR      82  75  78 S7        30.01F

STATION/POSITION SKY/WX   TEMP    WIND        PRES    WAVE   SWELL
                          AIR SEA DIR/SP/G            HT/PER HT/PER
                          (F)     (DEG/KT/KT) (MB)    (FT/S) (FT/S)
27.3N   84.2W                 86                N/A     3/ 5
CLEARWATER BEACH           84 86  250/ 16/ 18 1016.4F
MIDDLE TAMPA BAY                  290/ 13/ 14 1016.8F
VENICE                     82 87  190/ 13/ 14 1016.6F

$$
FLZ066-069-070-075>078-162-262-165-265-292100-
SOUTHWEST FLORIDA AND KEYS

CITY           SKY/WX    TMP DP  RH WIND       PRES   REMARKS
PUNTA GORDA    SUNNY     87  72  60 SW15      30.02F
FT MYERS       PTSUNNY   86  73  65 SW10      30.01F
SOUTHWEST INTL CLOUDY    86  72  62 SW10      30.02F
NAPLES         MOSUNNY   87  75  67 W10       30.02F HX  96
MARATHON       PTSUNNY   86  75  69 SW3       30.02F HX  95
KEY WEST NAS   PTSUNNY   87  72  60 S7        30.03F
KEY WEST INTL  CLOUDY    86  73  65 S5        30.03F

STATION/POSITION SKY/WX   TEMP    WIND        PRES    WAVE   SWELL
                          AIR SEA DIR/SP/G            HT/PER HT/PER
                          (F)     (DEG/KT/KT) (MB)    (FT/S) (FT/S)
NAPLES                        87              1017.5F
26.0N   85.6W              83 86  230/  8/ 10 1017.4F   2/ 4   2/ 4
DRY TORTUGAS               86     270/  1/  2 1017.3F
SAND KEY                   85      CALM  /  1 1017.7F
LONG KEY                   87 87  290/  2/  3 1017.1F

$$
FLZ067-068-071>074-168-172>174-292100-
SOUTHEAST FLORIDA

CITY           SKY/WX    TMP DP  RH WIND       PRES   REMARKS
W PALM BEACH   CLOUDY    87  73  62 NW14      30.03F THUNDER
BOCA RATON     MOSUNNY   91  73  55 W7        30.02F HX 100
FT LAUDER-EXEC CLOUDY    90  72  55 W7        30.02F HX  97
FT LAUDERDALE  CLOUDY    86  75  69 S7        30.02S HX  95
POMPANO BEACH  MOSUNNY   86  75  69 SE10      30.02F HX  95
PEMBROKE PINES CLOUDY    85  71  63 S9        30.03F
OPA LOCKA      CLOUDY    82  71  69 S8        30.03S
MIAMI          CLOUDY    86  72  62 SE13      30.03R THUNDER
WEST KENDALL   PTSUNNY   90  70  51 VRB5      30.02S HX  95
HOMESTEAD      SUNNY     90  72  55 SW7       30.02S HX  97

STATION/POSITION SKY/WX   TEMP    WIND        PRES    WAVE   SWELL
                          AIR SEA DIR/SP/G            HT/PER HT/PER
                          (F)     (DEG/KT/KT) (MB)    (FT/S) (FT/S)
PORT EVERGLADES            85     160/  7/ 10 1017.0F
VIRGINIA KEY               85 89  150/  8/ 11 1017.4F
LAKE WORTH                        260/ 10/ 12   N/A
FOWEY ROCKS                85 85  170/  9/ 10 1017.5F
SETTLEMENT POINT           85     230/  5/  6 1017.7F

$$




USA.gov is the U.S. government's official web portal to all federal, state and local government web resources and services.